Temperature
10 11 11 11 11 11 11 11 11 11 11 11 11 11 11 11 11 11 11 11 11 11 11 11 11 11 10 10 10 10 10 9 9 9 9 9 9 9 9 9 8 8 9
10 10 10 11 11 11 11 11 11 11 11 11 11 11 11 11 11 11 10 11 10 10 10 10 10 10 10 10 10 10 9 9 9 9 9 8 8 8 9 8 8 8 8
8 9 10 10 10 10 11 11 11 11 11 11 10 10 10 10 10 10 10 10 10 10 10 10 10 10 10 10 10 9 9 9 9 9 9 8 8 8 8 8 8 8 8
7 8 8 9 9 10 10 10 10 10 10 10 10 10 10 10 10 10 10 10 10 10 10 10 10 10 10 10 9 9 9 9 9 8 8 9 9 8 8 8 8 8 8
6 7 8 8 9 9 9 10 10 10 10 10 10 10 10 10 10 10 10 10 10 10 10 9 9 9 9 9 9 9 9 9 9 8 8 8 8 8 8 8 8 8 8
5 6 7 7 8 8 9 9 9 9 9 9 9 9 9 9 9 9 9 9 9 9 9 9 9 9 9 9 9 9 9 8 8 8 8 8 8 8 8 8 8 8 8
4 4 5 6 7 8 8 8 8 9 9 9 9 9 9 9 9 9 9 9 9 9 9 9 9 9 9 9 8 8 8 8 8 8 8 8 8 8 8 7 7 7 7
3 3 4 5 6 7 7 8 8 8 8 8 9 9 8 8 8 8 8 9 9 8 9 8 8 8 8 8 8 8 8 8 8 8 7 7 7 7 7 7 7 7 7
2 2 3 4 5 6 6 6 7 7 8 8 8 8 8 8 8 8 8 8 8 8 8 8 8 8 8 8 8 8 8 7 7 7 7 7 7 7 7 7 6 6 6
1 2 2 3 4 5 5 6 6 6 7 7 7 7 7 8 8 8 8 8 8 8 8 8 8 8 7 7 7 7 7 7 7 7 7 7 7 7 7 6 6 6 6
-0 0 1 2 3 4 4 5 5 5 6 6 6 7 7 7 7 7 7 7 7 7 7 7 7 7 7 7 7 7 7 7 7 7 7 7 6 6 6 6 6 6 6
-1 -0 0 1 2 3 3 4 4 5 5 5 6 6 6 6 7 7 7 7 7 7 7 7 7 7 7 7 7 7 7 7 6 6 6 6 6 6 6 6 6 6 6
-2 -1 -1 0 1 2 2 3 4 4 4 5 5 5 5 6 6 6 6 6 6 6 6 6 6 6 6 6 6 6 6 6 6 6 6 6 6 6 6 6 5 5 5
-2 -2 -1 -1 -0 1 1 2 3 3 4 4 4 5 5 5 5 6 6 6 6 6 5 5 6 6 6 6 6 6 6 6 6 6 6 6 5 5 5 5 5 5 5
-3 -3 -3 -2 -1 -0 1 1 2 3 3 3 4 4 4 4 5 5 5 5 5 5 5 5 5 5 5 5 5 5 5 5 5 5 5 5 5 5 5 5 5 4 4
-4 -4 -3 -3 -2 -1 -0 1 1 2 2 3 3 3 4 4 4 4 4 4 4 4 4 4 4 5 5 5 5 5 5 5 5 5 5 5 5 4 4 4 4 4 4
-5 -5 -4 -3 -3 -2 -1 -0 0 1 2 2 2 2 3 3 3 3 4 4 4 4 4 4 4 4 4 4 4 4 4 4 4 4 4 4 4 4 4 4 4 3 3
-6 -5 -4 -4 -3 -2 -2 -1 -0 0 1 1 2 2 2 2 2 3 3 3 3 3 3 3 3 4 4 4 4 4 4 4 4 4 4 4 4 3 3 3 3 3 3
-6 -5 -5 -4 -4 -3 -2 -2 -1 -0 0 0 1 1 1 2 2 2 2 2 2 2 3 3 3 3 3 3 3 3 3 3 3 3 3 3 3 3 3 3 3 3 3
-6 -6 -5 -5 -4 -4 -3 -2 -2 -1 -1 -0 -0 0 1 1 1 1 2 2 2 2 2 2 2 2 2 2 2 2 2 2 2 2 2 2 2 2 2 2 2 2 2
-7 -6 -6 -5 -5 -4 -4 -3 -3 -2 -2 -1 -1 -0 -0 0 1 1 1 1 1 1 1 1 1 2 2 2 2 2 2 2 2 2 2 2 2 2 1 1 1 1 1
-7 -7 -6 -6 -5 -5 -4 -4 -3 -3 -2 -2 -2 -1 -1 -1 -0 0 0 0 0 0 0 1 1 1 1 1 1 1 1 1 1 1 1 1 1 1 1 1 0 0 0
-8 -7 -7 -6 -6 -5 -5 -5 -4 -4 -3 -3 -2 -2 -1 -1 -1 -1 -0 -0 -0 -0 -0 -0 -0 -0 -0 0 0 0 0 0 0 0 0 0 0 0 -0 -0 -0 -0 -1
-8 -8 -7 -7 -6 -6 -5 -5 -5 -4 -4 -3 -3 -2 -2 -2 -2 -2 -1 -1 -1 -1 -1 -1 -1 -1 -1 -1 -1 -1 -1 -1 -1 -1 -1 -1 -1 -1 -1 -1 -1 -1 -1
-8 -8 -8 -7 -7 -7 -6 -6 -5 -5 -4 -4 -4 -3 -3 -3 -3 -2 -2 -2 -2 -2 -2 -2 -2 -2 -2 -2 -1 -1 -1 -1 -1 -1 -1 -1 -1 -1 -2 -2 -2 -2 -2
-8 -8 -8 -8 -7 -7 -7 -6 -6 -5 -5 -5 -4 -4 -4 -4 -3 -3 -3 -3 -3 -2 -2 -2 -2 -2 -2 -2 -2 -2 -2 -2 -2 -2 -2 -2 -2 -2 -2 -2 -2 -2 -2
Wind_Speed
5 3 3 4 4 4 5 6 7 7 6 5 5 5 5 4 4 4 6 8 9 10 8 6 7 6 5 6 6 5 5 3 3 3 2 2 2 1 1 1 1 1 0
3 2 2 3 4 5 6 6 7 7 7 6 5 4 4 3 3 3 5 7 8 9 8 7 6 6 5 6 6 5 4 2 2 3 3 1 2 2 1 1 0 1 0
4 3 2 3 3 5 6 6 7 7 7 6 4 4 3 3 3 3 3 4 7 8 7 7 7 7 7 7 7 6 6 4 2 2 3 3 3 1 2 1 0 1 1
3 2 1 2 3 4 4 5 5 6 7 7 7 7 6 5 5 4 4 4 6 7 7 7 7 7 6 6 6 6 4 6 4 2 1 2 3 3 1 2 1 1 2
3 2 2 3 2 2 3 4 4 5 6 7 8 7 5 4 3 4 5 4 4 5 6 7 6 6 5 6 6 6 5 5 5 4 3 2 2 2 2 2 2 2 2
2 2 1 0 0 0 1 3 4 5 5 6 7 7 7 6 6 5 5 4 3 3 4 5 5 5 5 6 6 7 7 6 5 4 4 4 3 3 3 3 2 2 2
4 3 2 2 1 0 1 2 4 4 5 6 6 6 7 7 8 7 6 5 4 3 5 5 5 5 5 5 6 6 7 7 7 6 4 4 3 3 3 3 2 2 2
6 5 4 2 1 1 0 1 4 4 4 5 5 5 5 5 5 6 5 6 5 5 5 6 6 5 6 5 5 5 5 6 6 6 6 4 4 4 4 4 3 1 1
7 6 6 4 3 1 1 1 2 3 4 4 4 4 4 4 5 5 5 5 4 4 6 6 6 5 6 6 6 5 5 5 6 6 6 4 4 4 4 4 4 4 3
8 7 7 6 4 3 2 1 1 2 3 3 3 3 3 3 4 5 5 5 5 5 6 5 5 5 5 6 6 5 5 5 5 5 6 5 3 4 3 4 4 4 4
8 7 7 6 5 5 4 3 2 2 1 2 2 3 2 2 3 4 4 4 4 5 6 6 6 5 5 5 5 5 6 6 5 4 6 6 5 4 4 4 4 4 3
8 8 7 7 7 6 5 4 3 2 1 1 2 2 2 3 3 3 4 4 4 5 5 5 5 5 5 5 6 6 6 6 6 6 5 5 5 5 4 4 4 4 4
9 9 9 9 8 7 6 5 4 3 2 1 1 2 2 2 3 3 3 4 4 4 4 4 5 5 5 5 5 6 6 6 6 6 6 6 5 5 4 5 4 4 3
10 10 10 9 9 8 6 5 5 4 3 2 1 1 2 2 3 3 3 3 4 4 4 4 4 5 4 4 4 5 5 5 5 5 6 6 6 6 6 5 5 4 3
12 11 11 10 10 9 8 7 5 4 4 3 2 1 1 1 2 3 3 3 3 4 4 4 4 4 4 4 5 5 5 5 4 4 4 5 6 7 6 5 5 5 4
13 12 12 11 11 10 9 8 7 5 3 2 2 2 0 1 2 2 3 3 3 3 3 3 4 4 3 5 6 5 4 5 5 4 4 4 5 6 7 7 7 7 6
13 13 12 11 10 10 9 8 7 6 4 2 2 2 1 1 1 2 2 3 3 3 3 3 3 3 3 5 5 5 4 4 5 5 4 3 3 4 3 4 6 7 8
12 12 11 11 10 9 9 8 7 5 4 3 3 3 1 0 1 1 2 2 2 3 3 3 3 3 3 4 4 4 3 3 3 4 4 4 4 3 4 3 3 4 5
11 11 10 10 10 9 9 8 7 5 4 4 4 3 2 0 1 1 1 1 2 2 2 2 3 3 2 3 4 3 2 2 2 2 3 4 4 5 5 4 3 3 3
11 10 10 9 9 9 8 7 7 5 5 4 4 4 3 1 1 1 0 0 2 2 2 1 2 2 2 2 3 3 2 2 2 1 2 4 4 5 6 5 4 5 4
11 11 9 8 8 8 7 7 7 6 6 5 4 3 3 2 1 0 0 1 2 2 2 1 1 1 1 2 3 3 2 3 3 2 2 2 4 5 6 5 4 5 4
12 11 10 9 8 8 7 7 7 7 6 5 4 4 3 2 1 1 0 1 2 3 2 2 1 0 1 1 2 3 2 2 3 3 2 3 4 4 4 3 3 4 3
11 10 9 9 8 8 7 7 8 7 5 4 4 3 3 2 2 1 0 1 1 2 2 2 1 0 0 0 1 2 2 2 1 2 3 3 3 2 2 2 3 2 2
10 9 9 9 9 9 8 7 7 6 4 4 4 3 2 2 2 1 1 0 1 1 1 1 1 0 0 0 0 1 1 2 1 1 2 2 2 1 1 1 1 1 2
9 8 8 8 9 9 8 8 7 5 4 4 3 3 2 2 2 2 2 1 1 1 1 1 1 2 2 2 2 1 1 2 2 2 2 1 1 1 1 1 1 1 1
9 8 9 9 8 8 8 8 7 5 4 4 3 2 2 2 2 2 3 4 3 3 2 1 0 1 1 1 1 1 2 2 4 2 2 2 2 2 2 2 1 1 2
Wind_Direction
248 232 204 186 173 171 173 177 177 175 166 167 168 168 177 175 173 171 170 171 170 170 166 160 155 156 159 159 150 138 129 123 128 109 79 35 41 55 67 56 58 44 93
270 253 210 187 184 181 182 182 183 179 176 178 179 169 161 167 170 160 160 169 168 168 171 164 163 160 154 150 154 145 136 137 145 131 118 70 355 351 14 28 346 330 349
241 239 227 218 196 192 191 190 189 182 178 163 147 126 114 111 142 164 174 173 174 171 169 169 165 164 165 170 171 164 153 156 168 151 145 155 202 266 323 315 276 251 262
261 252 235 231 220 215 198 188 182 177 171 161 164 166 171 176 183 177 176 169 171 171 170 170 168 169 170 173 179 173 158 155 165 154 92 130 146 155 245 306 291 261 250
261 249 234 227 233 215 194 185 170 169 167 170 172 171 173 172 152 149 157 166 164 167 166 169 168 170 175 176 177 174 168 171 171 166 150 120 88 126 165 233 271 285 258
298 291 305 324 346 53 163 173 166 169 169 174 175 173 170 160 153 155 166 169 163 165 164 166 171 175 176 181 183 181 179 183 175 170 165 162 163 178 176 201 229 250 271
358 350 348 355 354 43 154 176 172 175 174 172 177 179 174 170 172 172 177 172 172 181 181 175 178 179 180 182 179 181 187 186 182 185 190 186 183 163 166 172 195 232 275
3 357 342 333 315 292 193 174 182 179 175 175 180 175 171 173 177 176 175 182 189 191 179 180 184 183 180 179 176 183 192 188 191 194 188 190 195 180 175 171 167 200 271
359 357 357 357 352 337 266 205 185 174 173 173 169 172 170 170 175 174 173 182 185 176 172 178 182 183 182 181 178 187 194 192 197 197 195 197 199 193 189 180 179 181 226
2 3 3 4 7 2 4 39 99 166 166 165 170 173 177 179 173 168 174 175 176 168 168 172 177 180 184 185 183 186 191 192 201 196 194 200 201 195 192 192 194 195 205
358 0 360 2 11 19 28 30 37 49 94 154 167 162 170 176 171 172 179 180 177 172 175 177 179 183 187 185 187 193 189 193 198 197 198 204 196 195 195 189 190 197 196
2 1 3 7 15 20 22 25 24 31 31 118 150 166 165 166 169 176 181 174 177 176 174 172 177 183 185 185 190 194 192 193 198 201 198 207 196 195 196 193 198 201 200
7 7 9 9 6 6 9 12 13 8 4 35 138 149 163 178 183 184 179 171 171 168 167 169 177 183 183 185 190 191 194 198 201 200 199 205 197 203 202 198 201 201 200
5 5 4 2 359 355 356 1 3 5 8 17 49 165 191 199 193 183 171 168 168 167 175 179 180 183 180 181 183 185 190 197 203 203 202 202 202 205 201 202 201 194 194
2 1 359 354 352 351 351 352 355 359 3 10 5 293 221 184 170 170 166 163 165 173 179 177 177 178 178 184 184 189 191 193 198 205 206 206 205 204 203 200 197 191 197
353 352 353 351 348 345 343 343 342 345 351 355 346 347 5 146 158 171 168 161 165 165 165 175 181 183 191 193 193 190 189 191 195 203 206 204 206 207 208 209 203 197 199
346 345 342 339 338 337 336 336 332 336 345 347 347 355 2 116 148 161 159 169 175 164 168 179 178 186 194 190 193 194 187 189 197 199 197 201 206 205 202 210 215 219 219
341 336 334 333 333 332 333 333 336 342 347 353 350 350 343 67 100 131 161 164 163 166 172 178 182 183 198 191 189 186 182 187 199 202 198 197 201 203 197 199 213 229 234
329 328 328 327 328 331 333 338 341 342 346 345 342 331 320 239 150 145 165 164 156 155 166 174 174 178 198 195 189 176 168 178 198 204 196 194 201 208 199 194 211 234 253
332 331 332 333 334 334 338 342 339 338 331 329 329 327 323 296 206 198 201 155 151 152 152 154 172 179 199 202 191 177 167 179 193 197 204 204 205 205 196 195 202 223 237
332 334 333 334 333 333 338 339 337 329 323 330 334 335 332 321 312 43 8 148 141 136 137 141 162 184 208 202 196 189 179 184 185 194 207 216 205 202 203 204 209 221 219
334 336 336 334 336 338 339 338 334 328 332 335 336 334 334 332 350 46 45 129 143 143 144 138 117 184 217 205 206 204 203 187 184 199 209 209 200 202 203 207 205 201 193
330 332 333 332 334 337 339 335 330 329 332 336 336 332 338 342 345 353 60 112 134 151 159 158 170 277 351 209 194 196 198 195 193 199 202 193 188 197 204 196 189 185 179
327 330 334 334 333 336 336 330 327 331 332 332 332 340 353 359 2 0 15 117 156 158 171 179 187 224 317 277 200 181 173 160 155 152 155 161 168 177 173 178 207 206 194
325 329 333 331 329 333 335 337 338 338 337 338 339 346 356 356 6 15 11 355 323 221 210 217 207 205 232 253 239 197 187 176 168 142 129 129 149 164 176 170 168 177 187
325 329 331 330 331 336 338 341 340 341 340 342 344 347 350 358 10 27 23 23 20 24 22 15 296 286 271 252 234 223 203 181 165 150 167 183 199 211 214 208 212 214 211
Height
1464 1466 1468 1471 1473 1476 1478 1481 1484 1487 1490 1493 1495 1498 1501 1504 1508 1511 1513 1516 1519 1522 1524 1527 1529 1532 1534 1536 1539 1541 1543 1545 1547 1549 1551 1552 1553 1554 1556 1557 1557 1558 1558
1461 1463 1465 1467 1469 1471 1474 1477 1480 1483 1486 1489 1492 1496 1499 1501 1505 1508 1511 1513 1516 1519 1521 1524 1526 1529 1531 1534 1536 1538 1540 1542 1545 1547 1548 1550 1552 1551 1553 1554 1555 1555 1556
1457 1459 1461 1463 1465 1468 1470 1473 1476 1479 1482 1486 1489 1492 1495 1498 1501 1504 1507 1510 1513 1516 1518 1521 1524 1526 1529 1531 1533 1535 1537 1539 1542 1544 1546 1547 1548 1549 1550 1551 1552 1553 1554
1455 1456 1457 1459 1462 1464 1467 1470 1472 1475 1478 1482 1485 1488 1490 1493 1496 1500 1503 1506 1509 1512 1515 1518 1520 1523 1525 1528 1530 1533 1535 1537 1539 1541 1543 1545 1545 1547 1547 1549 1550 1550 1551
1453 1453 1455 1457 1459 1461 1464 1466 1469 1472 1475 1478 1481 1484 1487 1490 1494 1497 1500 1503 1506 1509 1511 1515 1517 1520 1522 1525 1527 1530 1532 1534 1536 1537 1539 1541 1542 1544 1545 1545 1546 1547 1548
1451 1451 1452 1454 1456 1458 1460 1463 1465 1468 1471 1474 1477 1480 1483 1487 1490 1493 1496 1499 1502 1505 1508 1511 1514 1516 1519 1521 1524 1526 1528 1530 1532 1534 1536 1538 1539 1540 1542 1542 1543 1544 1545
1450 1450 1450 1451 1453 1454 1457 1459 1461 1464 1467 1470 1474 1477 1480 1483 1486 1489 1492 1495 1498 1501 1504 1507 1510 1512 1515 1518 1520 1523 1525 1527 1529 1531 1533 1535 1536 1538 1539 1540 1540 1541 1541
1449 1448 1448 1449 1450 1452 1454 1456 1458 1461 1464 1467 1470 1473 1477 1480 1483 1486 1489 1492 1495 1497 1500 1503 1506 1508 1511 1514 1516 1519 1521 1523 1525 1527 1529 1531 1532 1534 1536 1537 1537 1537 1538
1449 1448 1448 1448 1449 1450 1451 1453 1455 1458 1461 1464 1467 1470 1473 1476 1479 1482 1485 1488 1491 1493 1496 1499 1502 1504 1507 1509 1512 1514 1517 1519 1521 1523 1525 1527 1529 1530 1532 1533 1534 1536 1534
1450 1449 1448 1447 1447 1448 1450 1451 1453 1455 1458 1461 1464 1467 1469 1473 1476 1478 1481 1484 1487 1490 1492 1495 1497 1500 1503 1505 1508 1510 1513 1515 1517 1519 1521 1523 1524 1526 1527 1529 1530 1531 1532
1451 1450 1449 1448 1447 1447 1448 1450 1451 1453 1455 1458 1460 1463 1466 1469 1472 1474 1477 1480 1483 1485 1488 1491 1493 1496 1498 1501 1503 1506 1508 1510 1512 1514 1516 1518 1520 1521 1523 1524 1525 1526 1527
1453 1451 1450 1448 1447 1447 1448 1449 1450 1451 1453 1456 1458 1460 1463 1465 1468 1471 1473 1476 1479 1481 1484 1487 1489 1491 1494 1496 1499 1501 1503 1505 1507 1510 1512 1513 1515 1517 1518 1519 1520 1521 1522
1454 1452 1451 1449 1448 1448 1448 1448 1449 1450 1452 1454 1455 1457 1459 1462 1464 1467 1469 1472 1474 1477 1480 1482 1484 1487 1489 1492 1494 1496 1499 1501 1503 1505 1507 1509 1510 1512 1513 1515 1516 1516 1517
1457 1454 1451 1450 1449 1449 1448 1448 1448 1449 1450 1451 1453 1454 1456 1459 1461 1463 1466 1468 1470 1473 1475 1478 1480 1483 1485 1487 1490 1492 1494 1496 1498 1500 1502 1503 1505 1507 1508 1510 1511 1512 1513
1457 1455 1453 1451 1450 1448 1447 1447 1447 1448 1449 1450 1451 1452 1454 1455 1457 1460 1462 1464 1466 1469 1471 1473 1476 1478 1480 1483 1485 1487 1489 1491 1493 1495 1497 1498 1500 1502 1503 1504 1505 1507 1507
1459 1457 1454 1452 1450 1448 1447 1446 1446 1446 1447 1448 1449 1450 1451 1452 1454 1456 1458 1460 1462 1465 1467 1469 1472 1474 1476 1479 1481 1483 1485 1487 1488 1490 1491 1493 1495 1496 1498 1499 1500 1501 1502
1461 1458 1455 1453 1450 1448 1446 1445 1445 1445 1445 1446 1447 1448 1449 1450 1451 1453 1455 1457 1459 1461 1463 1466 1468 1470 1472 1475 1477 1479 1480 1482 1483 1485 1486 1488 1490 1491 1492 1494 1495 1496 1497
1462 1458 1455 1452 1449 1447 1446 1444 1443 1443 1443 1444 1445 1445 1446 1447 1448 1450 1452 1454 1456 1458 1460 1462 1464 1466 1468 1470 1472 1474 1476 1477 1479 1480 1482 1483 1484 1486 1487 1488 1489 1490 1491
1462 1459 1455 1452 1449 1447 1444 1443 1441 1441 1441 1442 1442 1443 1444 1444 1446 1447 1449 1451 1453 1455 1457 1459 1460 1462 1464 1466 1468 1470 1471 1472 1474 1476 1477 1478 1480 1481 1483 1483 1484 1485 1486
1461 1457 1454 1451 1448 1445 1444 1442 1440 1439 1439 1439 1440 1441 1441 1442 1443 1444 1446 1448 1450 1451 1453 1455 1457 1459 1460 1462 1464 1466 1467 1468 1470 1471 1473 1474 1475 1477 1477 1478 1479 1479 1480
1460 1456 1452 1449 1447 1444 1442 1440 1439 1438 1437 1438 1438 1438 1439 1440 1440 1442 1444 1445 1447 1449 1450 1452 1453 1455 1457 1458 1460 1462 1463 1464 1465 1467 1468 1469 1471 1472 1473 1474 1474 1475 1476
1458 1454 1450 1447 1445 1443 1441 1438 1437 1436 1436 1436 1435 1436 1436 1437 1438 1439 1441 1442 1444 1445 1447 1448 1450 1451 1453 1455 1456 1458 1459 1460 1461 1462 1464 1465 1466 1467 1469 1469 1470 1471 1471
1457 1454 1450 1447 1444 1442 1440 1437 1436 1435 1434 1434 1434 1434 1434 1435 1436 1437 1438 1439 1441 1442 1443 1445 1446 1448 1450 1451 1453 1454 1455 1456 1457 1458 1459 1461 1462 1463 1464 1465 1466 1466 1467
1457 1453 1450 1446 1443 1441 1439 1437 1435 1434 1433 1432 1432 1432 1433 1433 1434 1435 1436 1437 1438 1439 1441 1442 1444 1445 1446 1448 1449 1450 1451 1452 1453 1454 1455 1457 1458 1459 1459 1460 1461 1462 1462
1456 1453 1449 1445 1443 1440 1438 1436 1434 1433 1431 1431 1430 1431 1431 1432 1432 1433 1434 1435 1436 1438 1439 1440 1441 1442 1443 1444 1446 1447 1448 1449 1450 1450 1451 1452 1453 1454 1455 1456 1457 1457 1458
1455 1452 1448 1445 1442 1439 1437 1435 1433 1432 1430 1429 1429 1429 1429 1430 1431 1431 1432 1433 1435 1436 1437 1438 1439 1440 1441 1442 1443 1444 1445 1446 1447 1448 1448 1448 1449 1450 1450 1451 1452 1452 1453